Regional Weather Roundup
Issued by NWS Portland, ME

Home | Current Version | Previous Version | Text Only | Print | Product List | Glossary On
Versions: 1 2 3 4 5 6 7 8 9 10 11 12 13 14 15 16 17 18 19 20 21 22 23 24 25 26 27 28 29 30 31 32 33 34 35 36 37 38 39 40 41 42 43 44 45 46 47 48 49 50
000
ASUS41 KGYX 051210
RWRGYX
WEATHER ROUNDUP FOR MAINE AND NEW HAMPSHIRE
NATIONAL WEATHER SERVICE GRAY ME
800 AM EDT WED AUG 05 2015

MEZ002-005-006-010-012-015-018-020-021-024-026-027-029-051300-
MAINE

CITY           SKY/WX    TMP DP  RH WIND       PRES   REMARKS
PORTLAND       MOSUNNY   66  62  87 W5        29.85F
6HR MIN TEMP:  57; 6HR MAX TEMP:  66;

SANFORD        SUNNY     68  57  68 CALM      29.86F
BAR HARBOR     SUNNY     63  63 100 CALM      29.83F
WISCASSET      SUNNY     66  63  90 VRB3      29.85S
6HR MIN TEMP:  55; 6HR MAX TEMP:  66;

ROCKLAND       SUNNY     64  63  94 W5        29.82S
FRYEBURG       SUNNY     64  61  90 VRB6      29.86S
6HR MIN TEMP:  52; 6HR MAX TEMP:  64;

LEWISTONAUBURN SUNNY     63  61  94 NE3       29.85S
AUGUSTA        SUNNY     64  61  90 CALM      29.85R
6HR MIN TEMP:  58; 6HR MAX TEMP:  64;

WATERVILLE     CLOUDY    61  55  82 CALM      29.82S VSB 1/4
BANGOR         MOSUNNY   62  61  96 CALM      29.83F
6HR MIN TEMP:  55; 6HR MAX TEMP:  62;

GREENVILLE       N/A     59  55  87 CALM      29.83S
6HR MIN TEMP:  54; 6HR MAX TEMP:  59;

MILLINOCKET    PTSUNNY   61  59  93 CALM      29.83S
6HR MIN TEMP:  56; 6HR MAX TEMP:  61;

HOULTON        PTSUNNY   63  59  87 SW7       29.79F
6HR MIN TEMP:  58; 6HR MAX TEMP:  63;

PRESQUE ISLE   CLOUDY    61  55  82 CALM      29.78F
6HR MIN TEMP:  55; 6HR MAX TEMP:  61;

FRENCHVILLE    PTSUNNY   59  55  87 SW6       29.77S
6HR MIN TEMP:  54; 6HR MAX TEMP:  59;

CARIBOU        CLOUDY    61  57  87 S6        29.78F
6HR MIN TEMP:  56; 6HR MAX TEMP:  62;

$$

NHZ002-005-008-009-011-012-014-051300-
NEW HAMPSHIRE

CITY           SKY/WX    TMP DP  RH WIND       PRES   REMARKS
PORTSMOUTH     PTSUNNY   67  59  76 SW6       29.85S
ROCHESTER      SUNNY     68  59  73 CALM      29.86S
6HR MIN TEMP:  56; 6HR MAX TEMP:  68;

NASHUA         SUNNY     65  58  78 N3        29.88S
MANCHESTER     MOSUNNY   69  57  65 CALM      29.86S
6HR MIN TEMP:  60; 6HR MAX TEMP:  69;

CONCORD        MOSUNNY   64  59  83 CALM      29.88S
6HR MIN TEMP:  54; 6HR MAX TEMP:  64;

LACONIA        SUNNY     66  57  72 NW3       29.87S
PLYMOUTH       FOG       55  55 100 CALM      29.89S VSB 1/4
BERLIN         PTSUNNY   59  55  87 CALM      29.88S
6HR MIN TEMP:  51; 6HR MAX TEMP:  59;

WHITEFIELD     MOSUNNY   60  56  86 NW3       29.88S
6HR MIN TEMP:  53; 6HR MAX TEMP:  60;

JAFFREY        SUNNY     64  57  78 S6        29.92R
6HR MIN TEMP:  54; 6HR MAX TEMP:  64;

KEENE          SUNNY     63  52  67 CALM      29.91S
LEBANON        SUNNY     63  57  81 S6        29.88S
6HR MIN TEMP:  56; 6HR MAX TEMP:  63;

MT WASHINGTON  FOG       43  43 100 W30         N/A  VSB 0
6HR MIN TEMP:  42; 6HR MAX TEMP:  46;

$$

VTZ005-007-008-051300-
VERMONT

CITY           SKY/WX    TMP DP  RH WIND       PRES   REMARKS
ST JOHNSBURY     N/A     61  57  87 MISG      29.86S
MONTPELIER     CLOUDY    59  56  89 CALM      29.92S
BURLINGTON     PTSUNNY   65  59  81 SE3       29.87R
$$

MAZ007-012-024-CTZ003-RIZ002-NYZ038-NYZ072-051300-
SOUTHERN NEW ENGLAND AND NY

CITY           SKY/WX    TMP DP  RH WIND       PRES   REMARKS
BOSTON         MOSUNNY   70  62  76 S7        29.88R
WORCESTER      SUNNY     65  55  70 W8        29.91S
NANTUCKET      PTSUNNY   75  67  76 W7        29.88S
PROVIDENCE     MOSUNNY   69  63  81 S5        29.90R
HARTFORD       PTSUNNY   65  60  84 W5        29.90R
ALBANY         PTSUNNY   66  58  75 W3        29.92R
NEW YORK CITY  PTSUNNY   76  61  59 NW3       29.90S
$$

ANZ081-ANZ082-ANZ150-NHZ014-MEZ023>029-051300-
COASTAL MARINE OBSERVATIONS

STATION/POSITION TIME  TEMP    WIND        PRES    WAVE
                       AIR SEA DIR/SP/G            HT/PER
                 (UTC) (F)     (DEG/KT/KT) (MB)    (FT/S)
MOUNT DESERT ROC 1200   59     260/  2/  2 1010.6R
MATINICUS ROCK   1100   59     220/  7/  7 1010.1F
ISLE OF SHOALS   1100   63     220/  6/  6 1010.7F
JEFFREYS LEDGE   1103      64                N/A     3/ 8
CASHES LEDGE BUO 1150   63                 1010.7R   3/ 8
GEORGES BANK BUO 1150   68 65  320/  6/ 10 1011.5F   8/ 9
$$

.............KEY..............
   WCI - WIND CHILL
   TC  - TEMPERATURE IN CELSIUS
   VSB - VISIBILITY IN MILES
   HX  - HEAT INDEX
   FAIR- INDICATES FEW OR NO CLOUDS BELOW 12,000 FT, WITH NO
         SIGNIFICANT WEATHER AND/OR OBSTRUCTIONS TO VISIBILITY.




USA.gov is the U.S. government's official web portal to all federal, state and local government web resources and services.